Location: *
(58.7167°N, 26.1833°E)
Time: 18:42:54
(UTC+00:00)

COSMOS 2455 - Pass Details

Date: 25 August 2019
Orbit: 900 x 910 km, 67.1° (Epoch: 15 October)

Event Time Altitude Azimuth Distance (km) Brightness Sun altitude
Rises 21:53:41 0° 314° (NW) 3,552 6.7 -20.5°
Reaches altitude 10° 21:56:15 10° 309° (NW) 2,607 5.8 -20.5°
Maximum altitude 22:02:04 52° 236° (SW) 1,128 3.1 -20.6°
Enters shadow 22:03:53 39° 188° (S) 1,342 3.2 -20.6°
